Wind_Speed
33 31 30 30 31 40 36 29 25 25 22 24 22 19 14 10 13 20 21 19 19 18 17 17 15 17 18 18 16 16 15 12 12 11 13 13 11 11 10 13 12 13 12 11
32 32 32 34 36 33 30 30 30 26 26 24 22 18 14 16 16 15 18 21 20 15 13 15 15 17 20 22 20 18 18 14 14 11 12 13 12 12 10 12 12 12 11 10
30 33 35 34 35 34 33 33 34 29 29 25 22 21 19 22 21 20 20 21 19 14 17 18 17 19 20 21 21 21 19 15 15 13 14 15 13 10 11 10 13 12 11 9
34 34 35 35 34 35 34 35 38 34 29 26 26 15 23 22 22 17 15 13 16 20 18 19 22 20 20 22 22 22 20 17 16 15 16 16 14 11 9 9 11 12 11 9
36 37 35 34 34 33 35 36 35 35 32 33 30 24 25 25 28 24 19 19 18 19 25 24 21 23 24 22 23 24 23 19 18 16 17 16 15 14 11 10 10 12 12 10
40 38 38 34 35 37 37 35 35 33 30 29 28 28 27 33 28 28 24 21 18 19 24 27 26 27 25 21 21 23 23 22 19 18 17 16 16 15 13 10 9 11 11 11
39 41 38 39 39 39 39 37 34 32 33 23 26 30 36 34 32 30 28 26 23 22 21 23 26 26 27 24 21 22 24 24 23 20 19 18 18 17 15 13 11 10 9 9
41 41 43 41 40 39 38 37 28 30 28 25 31 32 37 36 33 32 32 31 28 24 23 22 23 25 29 28 25 24 25 26 27 24 21 20 20 19 17 16 13 11 9 8
40 44 42 42 40 40 40 40 31 25 27 22 31 38 32 34 35 34 33 34 31 28 24 25 24 23 25 26 27 27 28 28 27 28 25 23 21 21 20 18 16 14 12 11
41 42 42 43 43 43 42 39 39 35 28 25 27 33 37 35 35 35 34 31 33 31 27 21 22 25 22 25 28 29 30 30 29 30 30 27 25 24 22 20 19 17 16 14
36 37 40 40 44 46 45 43 41 31 29 25 26 33 38 32 32 33 33 32 30 29 28 27 24 22 28 27 28 29 31 31 31 31 30 30 27 26 25 24 23 23 20 18
30 32 34 42 39 41 43 47 45 42 39 34 27 37 32 33 34 33 31 30 29 28 29 29 25 24 26 30 30 29 30 31 33 34 34 33 33 31 28 27 26 25 24 23
26 31 32 34 36 36 42 45 44 46 43 32 29 35 34 34 33 32 33 32 32 30 29 29 27 28 24 27 31 30 29 27 30 33 35 34 34 33 32 31 29 28 26 26
27 27 30 24 30 36 40 41 44 45 44 32 37 45 43 38 38 38 35 34 35 35 34 31 31 30 27 31 34 35 33 31 29 27 29 32 34 33 35 36 35 32 31 29
30 29 29 33 36 39 37 40 42 45 48 43 38 50 46 41 41 40 40 40 40 39 41 40 37 36 35 34 35 29 36 34 33 30 28 27 30 34 36 36 36 36 34 31
28 30 34 31 31 33 38 39 40 44 45 47 51 49 46 46 46 45 45 44 43 43 44 45 44 43 41 40 38 37 38 40 38 36 34 32 31 30 31 35 37 36 35 35
30 31 29 31 31 31 32 34 37 40 41 46 46 51 47 48 49 48 48 47 48 48 48 47 47 47 47 45 45 44 41 39 46 46 42 39 37 33 34 32 33 36 37 36
29 30 31 32 31 33 38 35 35 37 40 41 42 43 42 45 46 48 48 50 50 51 52 52 52 51 50 50 49 48 50 48 46 41 43 44 41 40 40 36 34 33 33 34
24 29 29 30 30 34 33 32 34 37 40 41 42 43 44 45 46 48 49 50 52 53 53 54 55 55 55 54 53 52 51 51 54 52 47 45 43 47 47 43 41 38 36 34
25 26 28 29 30 32 35 31 33 34 38 38 40 41 43 44 45 52 46 49 50 54 55 55 57 59 59 58 57 57 56 54 55 57 55 52 49 48 46 46 47 44 43 40
23 26 29 32 33 35 34 36 36 36 38 36 37 38 39 40 42 45 45 46 48 51 54 55 56 58 62 62 62 60 59 60 57 59 61 58 55 52 49 47 48 49 48 45
21 23 25 28 29 32 32 34 37 40 41 40 39 39 40 41 42 43 44 46 48 50 53 56 58 59 60 63 65 65 64 63 64 62 62 64 63 58 54 51 51 49 47 42
16 20 23 25 28 28 30 31 33 34 36 38 40 42 43 44 45 43 41 42 48 53 55 57 59 61 64 66 66 67 70 67 67 67 67 66 67 67 63 59 55 56 56 56
10 12 14 18 20 22 23 26 28 30 30 31 33 34 36 39 43 45 45 47 49 53 58 59 60 64 66 69 71 71 70 73 72 72 72 72 70 71 70 67 63 60 58 57
13 13 14 13 14 16 19 21 20 20 22 23 23 22 22 22 28 36 35 31 33 45 57 62 63 63 63 66 71 74 75 75 77 76 77 77 77 76 73 73 69 66 64 62
23 21 20 19 18 20 19 20 21 23 24 24 25 25 28 29 30 32 35 39 39 39 37 50 62 65 64 61 64 67 72 76 78 79 81 81 81 83 81 78 76 74 68 66
Wind_Direction
213 212 211 208 207 214 219 221 217 208 211 211 213 209 221 226 225 191 186 182 199 195 188 191 190 195 188 180 174 173 173 179 183 169 159 146 138 132 125 121 109 104 110 116
212 209 208 206 209 216 217 216 220 206 200 202 206 201 205 213 212 208 198 190 203 199 192 189 194 200 199 188 179 182 179 182 185 173 172 163 154 150 142 130 119 114 111 118
205 207 208 206 206 210 212 212 218 216 201 204 203 202 196 212 216 208 196 193 194 198 193 189 199 204 206 194 190 190 186 182 183 179 184 176 172 164 152 147 133 123 116 116
204 204 206 207 206 208 212 211 216 217 208 208 204 209 216 216 217 217 225 218 215 209 202 195 198 204 207 204 201 196 194 185 186 189 191 185 173 165 163 156 142 136 128 119
207 204 205 204 204 206 212 212 216 219 215 215 205 189 228 218 217 209 213 217 226 221 200 197 200 207 211 208 207 205 200 194 192 194 193 189 181 174 177 172 162 155 144 137
207 203 203 200 203 205 212 212 217 221 220 217 211 198 234 215 211 202 206 224 226 224 216 203 201 205 212 213 213 214 207 203 201 197 195 194 188 189 181 190 183 171 159 155
205 206 204 204 201 206 207 210 213 216 217 215 213 198 221 214 209 200 204 208 210 225 226 217 214 208 206 209 213 218 219 210 211 208 200 194 197 199 187 195 202 198 179 164
208 208 205 203 204 208 208 209 211 218 213 203 210 207 214 211 210 205 202 204 208 210 225 227 227 214 204 206 207 212 216 218 212 213 210 201 200 205 199 199 205 210 213 200
205 212 207 206 206 208 205 205 199 201 201 205 218 218 211 209 210 208 207 207 212 217 219 233 237 226 215 212 209 209 210 214 216 217 213 206 207 210 207 208 209 206 214 219
206 211 210 207 205 206 209 206 209 209 211 199 221 220 225 212 207 204 210 213 214 218 221 224 233 242 236 227 219 219 214 211 214 219 221 213 207 215 217 214 217 212 212 217
206 209 214 212 208 206 206 209 208 209 208 203 220 224 222 216 213 208 209 212 216 218 217 220 224 230 235 231 226 224 227 226 220 218 224 226 219 215 220 220 222 220 214 216
206 201 213 216 215 213 214 210 207 213 214 203 206 235 218 217 215 215 215 214 215 216 214 215 221 226 229 232 230 227 228 228 232 230 222 223 224 221 219 223 225 226 223 219
208 207 211 214 216 214 215 214 214 215 211 216 212 236 223 220 219 218 218 219 221 221 220 219 219 221 230 232 229 228 232 234 232 234 237 229 226 227 224 223 228 229 227 228
207 211 206 207 213 218 215 214 215 215 215 216 222 226 228 224 223 226 227 224 221 224 224 222 221 221 225 227 231 227 232 235 234 232 235 240 237 230 231 228 226 228 229 228
213 213 215 216 214 215 215 216 215 217 218 214 230 227 227 225 226 226 227 229 229 226 225 226 226 225 225 228 242 222 228 228 233 231 236 237 239 238 234 235 234 233 234 233
214 218 222 223 224 222 218 217 216 219 220 224 228 231 228 229 230 228 230 230 230 231 231 228 228 228 229 227 230 240 230 229 228 230 231 239 243 243 245 241 238 238 238 239
222 219 222 229 229 232 230 226 223 223 223 226 227 231 231 233 235 235 233 232 232 232 234 235 234 232 231 231 227 227 236 240 235 231 235 235 235 247 246 244 246 245 242 242
225 223 223 228 229 232 231 230 231 230 225 226 230 233 232 233 236 235 235 235 235 233 233 234 237 236 234 233 232 229 229 233 240 240 235 237 239 242 239 241 241 243 245 245
221 224 225 226 227 232 233 231 232 233 232 231 230 232 233 233 236 236 235 235 236 236 236 236 237 238 239 238 235 233 232 233 234 238 242 241 240 243 239 241 242 240 239 242
229 227 226 229 232 234 232 230 232 233 235 232 233 234 235 236 239 240 240 241 239 239 238 237 236 238 239 239 239 237 234 234 232 233 238 241 243 243 242 242 241 241 242 242
232 233 235 238 239 239 236 233 229 230 232 232 232 231 232 235 239 244 243 245 245 245 243 242 240 238 239 239 239 239 238 235 230 231 235 239 241 244 246 248 247 241 243 242
243 240 237 238 240 241 238 237 235 236 236 236 237 235 235 238 241 243 248 250 250 249 250 247 245 244 242 241 240 240 238 238 236 230 232 236 241 240 242 245 246 244 243 242
239 239 242 243 245 245 242 241 240 238 237 238 238 239 241 242 243 242 245 254 260 259 256 254 252 250 247 243 242 241 242 238 237 236 231 231 236 240 240 241 244 245 247 249
232 233 234 237 237 237 235 236 235 235 234 235 237 239 242 245 243 247 252 258 260 260 259 258 257 255 253 251 246 243 241 242 239 238 236 232 232 236 238 240 240 244 249 252
241 241 238 228 221 218 221 221 221 221 222 222 222 226 234 243 242 246 250 255 261 259 256 255 257 257 255 255 251 248 246 241 242 240 239 236 233 234 236 239 240 240 244 249
244 248 246 238 231 233 232 230 232 235 238 238 241 250 257 261 267 270 272 275 277 282 284 264 254 253 252 251 252 250 249 246 241 241 241 240 237 235 235 236 239 241 240 244
Height
5841 5847 5853 5859 5863 5861 5869 5877 5882 5886 5889 5890 5892 5895 5897 5899 5900 5901 5904 5908 5911 5912 5915 5917 5920 5922 5924 5926 5928 5930 5932 5934 5935 5937 5938 5939 5940 5940 5940 5941 5941 5942 5943 5942
5837 5842 5846 5850 5855 5861 5866 5872 5875 5881 5885 5889 5891 5894 5895 5897 5899 5901 5904 5907 5909 5912 5914 5916 5920 5922 5923 5924 5926 5930 5931 5933 5936 5938 5940 5940 5941 5942 5942 5943 5943 5945 5946 5946
5831 5835 5839 5845 5851 5856 5860 5867 5870 5876 5881 5886 5889 5892 5894 5896 5897 5899 5901 5903 5907 5910 5911 5914 5918 5921 5923 5924 5926 5928 5931 5933 5935 5937 5939 5941 5942 5943 5945 5945 5945 5946 5948 5949
5824 5828 5834 5840 5846 5852 5856 5860 5863 5870 5879 5884 5887 5895 5891 5893 5893 5894 5897 5899 5903 5906 5910 5912 5914 5918 5921 5922 5925 5928 5931 5933 5935 5937 5939 5941 5944 5946 5947 5947 5946 5947 5949 5951
5819 5823 5829 5835 5842 5847 5850 5854 5860 5865 5873 5876 5885 5890 5886 5890 5889 5891 5894 5897 5900 5904 5906 5910 5913 5915 5917 5921 5924 5927 5930 5933 5934 5936 5939 5941 5944 5945 5947 5948 5949 5949 5948 5950
5810 5816 5822 5829 5834 5839 5844 5851 5855 5861 5868 5874 5879 5886 5883 5882 5888 5891 5894 5896 5898 5900 5903 5907 5909 5912 5916 5920 5924 5927 5930 5932 5934 5935 5938 5941 5943 5945 5946 5948 5949 5950 5951 5950
5806 5810 5816 5822 5827 5832 5840 5845 5852 5858 5861 5870 5874 5879 5872 5880 5884 5889 5892 5894 5896 5898 5902 5904 5907 5910 5914 5919 5922 5925 5928 5931 5933 5934 5937 5939 5942 5944 5946 5948 5949 5951 5952 5953
5799 5805 5808 5815 5822 5829 5835 5842 5849 5853 5857 5866 5867 5871 5870 5876 5880 5885 5889 5893 5896 5898 5900 5902 5905 5908 5912 5915 5919 5923 5926 5929 5931 5933 5935 5938 5940 5942 5945 5947 5949 5951 5953 5954
5792 5795 5803 5810 5817 5823 5828 5833 5844 5847 5853 5862 5861 5860 5868 5871 5876 5880 5885 5889 5893 5897 5899 5900 5903 5906 5910 5913 5916 5919 5921 5924 5928 5931 5932 5935 5938 5940 5942 5945 5948 5950 5952 5954
5783 5791 5797 5804 5810 5816 5822 5830 5835 5842 5848 5856 5855 5858 5858 5865 5870 5875 5879 5884 5889 5893 5897 5899 5901 5904 5907 5910 5914 5916 5918 5919 5922 5925 5929 5931 5933 5936 5939 5943 5945 5948 5950 5953
5779 5786 5792 5797 5801 5807 5816 5822 5829 5837 5841 5850 5850 5852 5853 5861 5866 5870 5874 5878 5883 5888 5892 5896 5899 5901 5903 5906 5909 5913 5916 5918 5918 5921 5926 5929 5932 5933 5936 5939 5942 5945 5947 5950
5773 5779 5784 5789 5797 5804 5809 5814 5821 5828 5835 5840 5847 5840 5849 5854 5859 5863 5868 5873 5878 5883 5887 5892 5895 5897 5899 5901 5905 5908 5911 5914 5917 5918 5919 5923 5927 5930 5933 5936 5939 5942 5945 5947
5770 5774 5779 5784 5791 5796 5801 5808 5815 5821 5826 5832 5839 5835 5841 5847 5852 5857 5862 5867 5872 5877 5881 5886 5889 5891 5894 5897 5900 5903 5907 5910 5912 5914 5917 5919 5922 5926 5930 5932 5935 5938 5941 5944
5764 5770 5774 5782 5785 5788 5795 5800 5806 5813 5820 5826 5828 5825 5831 5838 5844 5848 5853 5859 5864 5869 5873 5878 5881 5885 5888 5890 5892 5897 5900 5904 5908 5911 5913 5916 5919 5922 5924 5927 5929 5932 5936 5940
5760 5764 5768 5772 5776 5780 5786 5792 5798 5803 5808 5815 5815 5816 5824 5830 5836 5840 5845 5849 5854 5859 5864 5868 5872 5876 5880 5884 5885 5887 5893 5897 5901 5905 5909 5912 5914 5916 5918 5922 5925 5927 5931 5935
5755 5759 5763 5767 5771 5775 5779 5784 5789 5795 5800 5804 5805 5809 5816 5820 5825 5832 5836 5840 5845 5849 5853 5858 5862 5866 5870 5875 5880 5882 5886 5889 5893 5897 5901 5905 5909 5911 5913 5916 5920 5922 5926 5930
5749 5753 5758 5761 5765 5769 5774 5777 5782 5787 5792 5795 5798 5799 5807 5812 5815 5820 5825 5830 5835 5839 5843 5847 5851 5856 5861 5865 5869 5874 5878 5881 5884 5889 5892 5896 5901 5905 5908 5910 5913 5916 5919 5922
5743 5747 5752 5754 5758 5762 5763 5770 5774 5777 5782 5786 5790 5793 5798 5802 5805 5809 5813 5818 5823 5828 5832 5836 5839 5844 5850 5854 5859 5863 5868 5872 5875 5878 5883 5887 5891 5895 5898 5902 5906 5908 5911 5914
5738 5741 5745 5748 5752 5754 5757 5762 5765 5768 5772 5776 5780 5783 5787 5792 5795 5798 5802 5807 5811 5815 5820 5825 5828 5832 5837 5843 5848 5853 5857 5862 5866 5869 5873 5877 5881 5885 5889 5893 5896 5899 5902 5905
5734 5736 5740 5743 5745 5747 5748 5753 5756 5759 5761 5766 5770 5774 5778 5782 5783 5784 5793 5794 5799 5803 5807 5812 5816 5820 5824 5829 5834 5840 5845 5850 5855 5859 5862 5865 5870 5874 5878 5881 5886 5890 5893 5897
5728 5730 5733 5734 5736 5738 5742 5745 5748 5751 5755 5757 5761 5765 5768 5770 5773 5775 5779 5782 5786 5789 5794 5798 5803 5807 5811 5815 5820 5826 5831 5837 5843 5847 5851 5854 5858 5863 5868 5871 5875 5879 5884 5888
5721 5723 5725 5727 5728 5730 5733 5735 5739 5742 5744 5748 5751 5755 5758 5761 5763 5766 5767 5769 5772 5776 5779 5783 5788 5792 5796 5800 5805 5810 5816 5821 5828 5834 5838 5842 5846 5849 5855 5861 5864 5867 5871 5875
5715 5716 5718 5720 5720 5722 5724 5726 5728 5731 5734 5737 5741 5745 5747 5751 5753 5756 5758 5760 5759 5761 5764 5767 5772 5777 5780 5784 5789 5794 5797 5805 5812 5817 5823 5827 5831 5837 5841 5846 5851 5856 5860 5863
5709 5710 5711 5713 5713 5714 5715 5717 5719 5722 5725 5728 5731 5734 5737 5739 5742 5745 5746 5748 5749 5748 5748 5749 5753 5757 5763 5765 5771 5776 5781 5785 5793 5800 5805 5811 5816 5821 5826 5832 5837 5842 5846 5851
5704 5705 5706 5707 5707 5708 5709 5710 5713 5715 5718 5720 5723 5725 5727 5729 5730 5732 5733 5734 5734 5734 5734 5734 5735 5739 5744 5745 5749 5755 5760 5767 5773 5779 5786 5793 5799 5803 5810 5815 5822 5828 5832 5836
5696 5698 5699 5701 5703 5704 5704 5706 5707 5709 5711 5712 5714 5716 5717 5718 5718 5719 5719 5721 5722 5721 5720 5718 5718 5720 5723 5727 5728 5733 5738 5744 5753 5759 5764 5770 5779 5785 5791 5798 5805 5810 5818 5822